Location: Москва
(55.7504°N, 37.6175°E)
Time: 07:14:48
(UTC+03:00)

Nauka - Pass Details

Date: 27 September 2021
Orbit: 417 x 423 km, 51.6° (Epoch: 19 October)

Event Time Altitude Azimuth Distance (km) Brightness Sun altitude
Rises 21:13:59 0° 273° (W) 2,368 ? -24.5°
Reaches altitude 10° 21:16:26 10° 256° (WSW) 1,503 ? -24.8°
Enters shadow 21:17:19 15° 244° (WSW) 1,257 ? -24.9°
